{"data":{"norad_id":45222,"intl_designator":"2020-012AW","name":"STARLINK-1191","alt_names":[],"object_type":"PAYLOAD","status":"ACTIVE","operator":null,"country":"US","launch_date":"2020-02-17","launch_site_code":"AFETR","launch_vehicle":null,"mission":null,"orbit_class":"UNKNOWN","rcs_meters":null,"size_class":null,"mass_kg":null,"dimensions":null,"purposes":["comms"],"wikipedia_slug":null,"has_3d_model":false,"image_url":null,"decayed_at":null,"tle_current":{"epoch":"2026-09-20T03:40:47.560800Z","epoch_age_seconds":44420,"freshness":"FRESH","line1":"1 45222U 20012AW  26263.15332825  .00045234  00000+0  71523-3 0  9996","line2":"2 45222  53.1489 161.6923 0001764 162.9621 197.1449 15.53038081365485","mean_motion":15.53038081,"eccentricity":0.0001764,"inclination_deg":53.1489,"raan_deg":161.6923,"arg_perigee_deg":162.9621,"mean_anomaly_deg":197.1449,"bstar":0.00071523,"rev_number":36548,"period_min":92.721486846786,"perigee_km":406.66463854601,"apogee_km":409.05873888339,"semimajor_km":6785.9986887147,"source":"CELESTRAK","updated_at":"2026-09-20T09:00:38.227969Z"}}}